Syracuse, NY

1:07 PM EDT on March 23, 2017 (GMT -0400)
Syracuse Hancock International

Weather History for KSYR - May, 2011

Change the Weather History Date:

Monday, May 2, 2011

  Actual Average Record
Temperature  
Mean Temperature 59 °F 53 °F  
Max Temperature 67 °F 64 °F 86 °F (2001)
Min Temperature 50 °F 42 °F 26 °F (1903)
Degree Days  
Heating Degree Days 6 12  
Month to date heating degree days 14 12  
Since 1 July heating degree days 6461 6347  
Cooling Degree Days 0 0  
Month to date cooling degree days 0 0  
Year to date cooling degree days 12 4  
Growing Degree Days 8 (Base 50)    
Moisture  
Dew Point 50 °F    
Average Humidity 76    
Maximum Humidity 89    
Minimum Humidity 63    
Precipitation  
Precipitation 0.03 in 0.10 in 1.30 in (1992)
Month to date precipitation 0.04 0.10  
Year to date precipitation 15.51 10.81  
Snow  
Snow 0.00 in 0.00 in 0.80 in (1963)
Month to date snowfall 0.0 0.0  
Since 1 July snowfall 179.0 123.7  
Snow Depth 0.00 in    
Sea Level Pressure  
Sea Level Pressure 30.10 in    
Wind  
Wind Speed 7 mph (WSW)    
Max Wind Speed 20 mph    
Max Gust Speed 22 mph    
Visibility 9 miles    
Events Rain    
T = Trace of Precipitation, MM = Missing Value Source: NWS Daily Summary

Daily Weather History Graph

Daily Weather History Graph

Search for Another Location

Airport or City:

Trip Planner

Search our weather history database for the weather conditions in past years. The results will help you decide how hot, cold, wet, or windy it might be!

Date:

Astronomy

May. 02, 2011 Rise Set
Actual Time 5:57 AM EDT 8:06 PM EDT
Civil Twilight 5:25 AM EDT 8:37 PM EDT
Nautical Twilight 4:47 AM EDT 9:16 PM EDT
Astronomical Twilight 4:05 AM EDT 9:58 PM EDT
Moon 5:14 AM EDT (5/2) 7:53 PM EDT (5/2)
Length of Visible Light 15h 11m
Length of Day
14h 09m
Waning Crescent, 0% of the Moon is Illuminated
May 2
Waning Crescent
May 3
New
May 10
First Quarter
May 17
Full
May 24
Last Quarter

Hourly Weather History & Observations

Time (EDT) Temp. Dew Point Humidity Pressure Visibility Wind Dir Wind Speed Gust Speed Precip Events Conditions
12:54 AM 59.0 °F 50.0 °F 72% 30.10 in 10.0 mi South 6.9 mph - 0.01 in   Overcast
1:54 AM 57.9 °F 50.0 °F 75% 30.06 in 10.0 mi SSE 6.9 mph - N/A   Mostly Cloudy
2:54 AM 59.0 °F 48.9 °F 69% 30.07 in 10.0 mi SSW 9.2 mph - N/A   Overcast
3:54 AM 59.0 °F 48.9 °F 69% 30.07 in 10.0 mi SSW 8.1 mph - N/A   Overcast
4:54 AM 60.1 °F 48.0 °F 64% 30.07 in 10.0 mi SW 12.7 mph - 0.00 in Rain Light Rain
5:54 AM 57.9 °F 48.9 °F 72% 30.09 in 10.0 mi SSW 10.4 mph - 0.00 in   Overcast
6:54 AM 59.0 °F 50.0 °F 72% 30.08 in 10.0 mi South 9.2 mph - N/A   Overcast
7:54 AM 57.9 °F 48.9 °F 72% 30.08 in 10.0 mi SSE 8.1 mph 16.1 mph 0.00 in Rain Light Rain
8:54 AM 59.0 °F 48.9 °F 69% 30.08 in 10.0 mi South 13.8 mph - 0.00 in Rain Light Rain
9:54 AM 59.0 °F 50.0 °F 72% 30.08 in 10.0 mi SSE 5.8 mph - 0.00 in   Overcast
10:54 AM 62.1 °F 50.0 °F 65% 30.07 in 10.0 mi SSW 12.7 mph 18.4 mph 0.00 in Rain Light Rain
11:54 AM 62.1 °F 51.1 °F 67% 30.06 in 10.0 mi Calm Calm - 0.00 in Rain Light Rain
12:54 PM 63.0 °F 52.0 °F 67% 30.03 in 10.0 mi South 10.4 mph - 0.00 in   Overcast
1:54 PM 64.0 °F 52.0 °F 65% 30.03 in 10.0 mi SW 5.8 mph - N/A   Overcast
2:54 PM 64.0 °F 52.0 °F 65% 30.03 in 10.0 mi SW 3.5 mph - N/A   Overcast
3:54 PM 66.0 °F 54.0 °F 65% 30.04 in 10.0 mi SSW 3.5 mph - N/A   Overcast
4:54 PM 64.9 °F 55.9 °F 73% 30.05 in 10.0 mi West 12.7 mph - N/A   Overcast
5:28 PM 60.8 °F 55.4 °F 82% 30.09 in 10.0 mi NNW 16.1 mph 21.9 mph 0.00 in Rain Light Rain
5:34 PM 57.2 °F 53.6 °F 88% 30.09 in 2.0 mi North 12.7 mph 21.9 mph 0.00 in Rain Light Rain
5:54 PM 54.0 °F 51.1 °F 90% 30.09 in 2.5 mi North 11.5 mph - 0.00 in Rain Light Rain
6:05 PM 53.6 °F 51.8 °F 94% 30.11 in 3.0 mi NNW 10.4 mph - 0.02 in Rain Light Rain
6:33 PM 53.6 °F 50.0 °F 88% 30.12 in 10.0 mi NNW 9.2 mph - 0.02 in   Overcast
6:54 PM 54.0 °F 50.0 °F 86% 30.12 in 6.0 mi NNW 10.4 mph - 0.02 in Rain Light Rain
7:24 PM 53.6 °F 50.0 °F 88% 30.13 in 8.0 mi NNW 5.8 mph - 0.01 in Rain Light Rain
7:28 PM 53.6 °F 50.0 °F 88% 30.13 in 8.0 mi NNW 6.9 mph - 0.01 in Rain Light Rain
7:54 PM 53.1 °F 48.9 °F 86% 30.14 in 10.0 mi NNW 6.9 mph - 0.01 in Rain Light Rain
8:26 PM 51.8 °F 48.2 °F 88% 30.17 in 10.0 mi NNW 4.6 mph - 0.00 in   Overcast
8:54 PM 52.0 °F 48.0 °F 86% 30.17 in 10.0 mi Calm Calm - 0.00 in   Overcast
9:54 PM 53.1 °F 48.9 °F 86% 30.19 in 10.0 mi Calm Calm - 0.00 in   Overcast
10:54 PM 52.0 °F 48.0 °F 86% 30.20 in 9.0 mi NNW 3.5 mph - N/A   Overcast
11:54 PM 51.1 °F 46.0 °F 83% 30.19 in 10.0 mi NNW 3.5 mph - N/A   Overcast